Tracking 31027 objects as of 19-Jul-2025
HD Live streaming from Space Station
objects crossing your sky now

TITAN 34B AGENA D DEB

Track TITAN 34B AGENA D DEB now!
10-day predictions


NORAD ID: 23811
Int'l Code: 1983-078C
Perigee: 440.8 km
Apogee: 13,431.7 km
Inclination: 63.4 °
Period: 254.6 minutes
Semi major axis: 13307 km
RCS: Unknown
Launch date: July 31, 1983
Source: United States (US)
Launch site: AIR FORCE WESTERN TEST RANGE (AFWTR)

Note: This is SATELLITE DEBRIS
Your satellite tracking list
FLOCK 3S 1
Track 1 satellite(s)




NASA's NSSDC Master Catalog

Two Line Element Set (TLE):
1 23811U 83078C   25198.63739380  .00006885  00000-0  55435-2 0  9996
2 23811  63.3840 304.7973 4881132 247.4283  55.0083  5.65547738119025
Source of the keplerian elements: AFSPC